User: anonymous   Login
Location: La Vergne
(36.0160°N, 86.5820°W)
Time: 00:54:01
(UTC-05:00)
Language:

Cosmos 1703 Rocket - Orbit

View from above orbital plane
View from above orbital plane
View from above satellite
View from above satellite

Ground track
Ground track

The orbit data is extracted from the following two-line orbital elements,

1 16263U 85108B   16148.43126491  .00000115  00000-0  11164-4 0  9994
2 16263  82.5027 116.1883 0020204 174.1407 301.6033 14.82918738647211
Epoch (UTC): 27 May 2016 10:21:01
Eccentricity: 0.0020204
inclination: 82.5027°
perigee height: 606 km
apogee height: 634 km
right ascension of ascending node: 116.1883°
argument of perigee: 174.1407°
revolutions per day: 14.82918738
mean anomaly at epoch: 301.6033°
orbit number at epoch: 64721

The dashed part of the orbit path shows where the satellite is in the earth's shadow,  

DLR